Terug naar catalogus

BREEZE-M DEB

TANK

ActiefHEO
NORAD 27646·DEBRIS·🇷🇺 Russia

Gelanceerd Dec 29, 2002 vanaf Baikonur Cosmodrome

Loading…

Volgende Passages (komende 24 uur)

TLE

VersSource: Space-Track

Epoch: Sep 12, 2026, 03:08 UTC

1 27646U 02062C   26255.13093021  .00000008  00000-0  14705-3 0  9992
2 27646  49.4906 153.1585 5425692 223.1606 344.5466  4.61724335399479

Volg BREEZE-M DEB in realtime met AllMySat

Download on the App Store